CW8429 Weather Reports


Display with metric or nautical units.
time (UTC)temp
F
wind
direction
speed
MPH
gust
MPH
rain 1hr
in
rain 24hr
in
rain mn
in
humidity
%
barometer
mb
20260901033627 59 114 4.0 8.0 0.00 0.21 0.21 73 1019.4
20260901032616 59 152 0.0 2.0 0.00 0.21 0.21 76 1019.4
20260901031650 59 150 3.0 6.0 0.00 0.21 0.21 79 1019.3
20260901030624 59 150 0.0 3.0 0.00 0.21 0.21 77 1019.2
20260901025627 59 150 2.0 10.0 0.00 0.21 0.21 73 1019.1
20260901024637 59 158 7.0 11.0 0.00 0.21 0.21 72 1019.0
20260901023625 60 207 3.0 10.0 0.00 0.21 0.21 70 1018.9
20260901022619 61 284 4.0 9.0 0.00 0.21 0.21 69 1018.7
20260901021629 62 184 8.0 11.0 0.00 0.21 0.21 66 1018.6
20260901020638 62 138 8.0 13.0 0.00 0.21 0.21 67 1018.4
20260901015640 62 155 6.0 10.0 0.00 0.21 0.21 69 1018.4
20260901014616 61 117 5.0 9.0 0.00 0.21 0.21 74 1018.4
20260901013627 61 132 5.0 10.0 0.00 0.21 0.21 74 1018.5
20260901012618 60 156 7.0 11.0 0.00 0.21 0.21 75 1018.6
20260901011629 59 132 4.0 7.0 0.00 0.21 0.21 82 1018.4
20260901010625 60 142 4.0 5.0 0.00 0.21 0.21 81 1018.4
20260901005626 60 149 4.0 7.0 0.00 0.21 0.21 81 1018.4
20260901004617 60 121 4.0 8.0 0.00 0.21 0.21 82 1018.2
20260901003649 61 108 7.0 8.0 0.02 0.21 0.21 81 1018.5
20260901002643 61 153 4.0 8.0 0.02 0.21 0.21 75 1018.6
20260901001612 61 129 4.0 8.0 0.02 0.21 0.21 77 1018.7
20260901000625 60 142 5.0 11.0 0.03 0.21 0.21 76 1018.8
20260831235629 59 140 3.0 9.0 0.03 0.21 0.21 80 1018.9
20260831223620 69 165 11.0 18.0 0.00 0.00 0.00 52 1018.6
20260831222648 70 107 6.0 12.0 0.00 0.00 0.00 45 1017.9
20260831221615 70 117 3.0 11.0 0.00 0.00 0.00 52 1017.7
20260831220629 70 295 4.0 8.0 0.00 0.00 0.00 61 1017.3
20260831215632 70 293 4.0 11.0 0.00 0.00 0.00 57 1017.1
20260831214622 71 286 4.0 7.0 0.00 0.00 0.00 56 1017.1
20260831213652 70 308 3.0 8.0 0.00 0.00 0.00 51 1017.1
20260831212623 69 331 5.0 9.0 0.00 0.00 0.00 54 1017.5
20260831211613 68 269 6.0 12.0 0.00 0.00 0.00 61 1017.7
20260831210622 68 300 3.0 7.0 0.00 0.00 0.00 60 1018.0
20260831205623 68 240 0.0 4.0 0.00 0.00 0.00 64 1017.7
20260831204619 68 292 0.0 4.0 0.00 0.00 0.00 65 1017.6
20260831203630 68 292 2.0 5.0 0.00 0.00 0.00 63 1017.5
20260831202621 69 292 3.0 4.0 0.00 0.00 0.00 62 1017.7
20260831201612 69 291 2.0 4.0 0.00 0.00 0.00 55 1017.7
20260831200648 69 291 3.0 5.0 0.00 0.00 0.00 53 1018.0
20260831195650 70 292 3.0 8.0 0.00 0.00 0.00 52 1018.0
20260831194621 72 302 5.0 8.0 0.00 0.00 0.00 48 1018.0
20260831193612 73 296 5.0 9.0 0.00 0.00 0.00 47 1018.1
20260831192627 72 309 6.0 10.0 0.00 0.00 0.00 45 1018.4
20260831191620 72 294 5.0 8.0 0.00 0.00 0.00 48 1018.5
20260831190631 72 279 4.0 8.0 0.00 0.00 0.00 48 1018.7
20260831185615 71 312 4.0 8.0 0.00 0.00 0.00 46 1018.9
20260831184629 71 279 5.0 9.0 0.00 0.00 0.00 49 1019.1
20260831183621 70 309 6.0 10.0 0.00 0.00 0.00 49 1019.2
20260831182613 70 327 4.0 8.0 0.00 0.00 0.00 46 1019.5
20260831181645 70 288 3.0 8.0 0.00 0.00 0.00 48 1019.7
20260831180621 69 286 4.0 7.0 0.00 0.00 0.00 48 1019.7
20260831175649 69 296 3.0 8.0 0.00 0.00 0.00 49 1019.8
20260831174619 68 290 2.0 8.0 0.00 0.00 0.00 50 1019.8
20260831173630 68 274 3.0 7.0 0.00 0.00 0.00 49 1020.0
20260831172639 67 286 2.0 7.0 0.00 0.00 0.00 50 1020.0
20260831171613 66 289 3.0 5.0 0.00 0.00 0.00 49 1020.1
20260831170624 65 275 3.0 6.0 0.00 0.00 0.00 50 1020.1
20260831165625 65 289 3.0 7.0 0.00 0.00 0.00 52 1020.2
20260831164615 64 299 3.0 6.0 0.00 0.00 0.00 52 1020.1
20260831163627 64 293 2.0 5.0 0.00 0.00 0.00 52 1020.1
20260831162619 63 293 2.0 4.0 0.00 0.00 0.00 52 1020.2
20260831161630 63 304 1.0 5.0 0.00 0.00 0.00 52 1020.3
20260831160625 62 297 3.0 5.0 0.00 0.00 0.00 55 1020.3
20260831155628 62 300 2.0 5.0 0.00 0.00 0.00 56 1020.3
20260831154619 61 270 1.0 4.0 0.00 0.00 0.00 60 1020.3
20260831153631 61 240 2.0 4.0 0.00 0.00 0.00 60 1020.5
20260831152625 61 205 0.0 3.0 0.00 0.00 0.00 60 1020.5
20260831151615 60 123 0.0 0.0 0.00 0.00 0.00 60 1020.7
20260831150623 59 123 0.0 0.0 0.00 0.00 0.00 61 1020.8
20260831145624 57 123 0.0 0.0 0.00 0.00 0.00 64 1020.6
20260831144619 55 123 0.0 0.0 0.00 0.00 0.00 66 1020.6
20260831143631 52 123 0.0 0.0 0.00 0.00 0.00 71 1020.6
20260831142622 51 124 0.0 0.0 0.00 0.00 0.00 71 1020.6
20260831141613 51 124 0.0 0.0 0.00 0.00 0.00 69 1020.6
20260831140649 51 124 0.0 4.0 0.00 0.00 0.00 68 1020.5
20260831135630 51 124 0.0 6.0 0.00 0.00 0.00 67 1020.3
20260831134621 51 117 4.0 8.0 0.00 0.00 0.00 66 1020.2
20260831133613 51 127 5.0 9.0 0.00 0.00 0.00 66 1020.1
20260831132628 51 111 5.0 9.0 0.00 0.00 0.00 66 1020.2
20260831131619 50 138 5.0 9.0 0.00 0.00 0.00 67 1020.1
20260831130631 50 137 5.0 10.0 0.00 0.00 0.00 67 1020.1
20260831125614 50 131 6.0 9.0 0.00 0.03 0.00 67 1020.0
20260831124629 50 135 5.0 9.0 0.00 0.03 0.00 67 1020.0
20260831123620 50 130 5.0 8.0 0.00 0.03 0.00 68 1019.9
20260831122631 50 118 5.0 9.0 0.00 0.03 0.00 68 1019.9
20260831121626 50 129 5.0 10.0 0.00 0.03 0.00 68 1019.9
20260831120617 50 117 8.0 10.0 0.00 0.03 0.00 68 1019.9
20260831115620 50 123 7.0 10.0 0.00 0.03 0.00 67 1019.8
20260831114630 50 119 4.0 9.0 0.00 0.03 0.00 67 1019.8
20260831113622 50 128 7.0 10.0 0.00 0.03 0.00 66 1019.8
20260831112612 51 118 7.0 9.0 0.00 0.03 0.00 66 1019.8
20260831111623 51 136 4.0 8.0 0.00 0.03 0.00 66 1019.8
20260831110612 51 118 5.0 8.0 0.00 0.03 0.00 66 1019.8
20260831105617 52 129 4.0 9.0 0.00 0.03 0.00 66 1019.8
20260831104646 52 115 6.0 9.0 0.00 0.03 0.00 66 1019.8
20260831103614 52 150 5.0 10.0 0.00 0.03 0.00 65 1019.7
20260831102623 52 127 7.0 10.0 0.00 0.03 0.00 66 1019.8
20260831101638 52 125 8.0 10.0 0.00 0.03 0.00 64 1019.8
20260831100627 51 138 5.0 10.0 0.00 0.03 0.00 64 1019.6
20260831095629 51 115 7.0 11.0 0.00 0.03 0.00 63 1019.5
20260831094620 52 117 8.0 10.0 0.00 0.03 0.00 61 1019.4
20260831093614 52 116 7.0 9.0 0.00 0.03 0.00 60 1019.4
20260831092623 52 117 6.0 9.0 0.00 0.03 0.00 59 1019.4
20260831091612 53 110 8.0 11.0 0.00 0.03 0.00 58 1019.3
20260831090621 53 123 5.0 10.0 0.00 0.03 0.00 58 1019.4
20260831085628 52 122 6.0 11.0 0.00 0.06 0.00 57 1019.3
20260831084617 53 119 8.0 10.0 0.00 0.06 0.00 55 1019.3
20260831083626 53 132 5.0 9.0 0.00 0.06 0.00 55 1019.3
20260831082634 53 110 7.0 10.0 0.00 0.06 0.00 54 1019.2
20260831081627 53 121 6.0 9.0 0.00 0.06 0.00 53 1019.2
20260831080616 53 125 6.0 9.0 0.00 0.06 0.00 52 1019.2
20260831075638 53 132 4.0 9.0 0.00 0.11 0.00 53 1019.2
20260831074629 54 112 7.0 9.0 0.00 0.11 0.00 52 1019.2
20260831073622 54 123 6.0 9.0 0.00 0.11 0.00 52 1019.2
20260831072630 55 120 8.0 9.0 0.00 0.11 0.00 51 1019.2
20260831071620 55 117 7.0 11.0 0.00 0.11 0.00 50 1019.1
20260831070630 55 127 7.0 9.0 0.00 0.11 0.00 50 1019.1
20260831065615 55 117 0.0 3.0 0.00 0.11 0.00 55 1019.1
20260831064625 56 117 2.0 4.0 0.00 0.11 0.00 49 1019.1
20260831063615 57 116 5.0 9.0 0.00 0.11 0.00 47 1019.0
20260831062624 57 163 6.0 8.0 0.00 0.11 0.00 46 1019.1
20260831061638 58 119 6.0 10.0 0.00 0.11 0.00 46 1019.1
20260831060614 58 114 5.0 10.0 0.00 0.11 0.00 47 1019.1
20260831055635 58 141 7.0 10.0 0.00 0.11 0.11 47 1019.1
20260831054624 58 140 5.0 11.0 0.00 0.11 0.11 46 1019.0
20260831053632 58 98 8.0 13.0 0.00 0.11 0.11 45 1018.9
20260831052642 57 130 4.0 10.0 0.00 0.11 0.11 47 1018.9
20260831051636 57 115 8.0 11.0 0.00 0.11 0.11 48 1018.9
20260831050645 58 141 9.0 11.0 0.00 0.11 0.11 48 1018.8
20260831045627 58 124 8.0 11.0 0.00 0.11 0.11 49 1018.8
20260831044617 59 150 6.0 9.0 0.00 0.11 0.11 48 1018.8
20260831043631 59 144 5.0 9.0 0.00 0.11 0.11 49 1018.7
20260831042622 59 132 4.0 7.0 0.00 0.11 0.11 48 1018.6
20260831041613 60 133 6.0 10.0 0.00 0.11 0.11 51 1018.6
20260831040624 60 124 7.0 10.0 0.00 0.11 0.11 54 1018.6
20260831035631 60 123 6.0 9.0 0.00 0.11 0.11 58 1018.4
20260831034623 61 130 7.0 9.0 0.00 0.11 0.11 58 1018.4